Location: Minneapolis
(45.0000°N, 93.0000°W)
Time: 04:20:10

Envisat - Pass Details

Date: 15 March 2018
Orbit: 764 x 766 km, 98.2° (Epoch: 22 March)

Event Time Altitude Azimuth Distance (km) Brightness Sun altitude
Rises 21:57:54 0° 212° (SSW) 3,217 6.3 -28.0°
Reaches altitude 10° 22:01:08 10° 234° (SW) 2,297 5.7 -28.5°
Maximum altitude 22:04:08 16° 271° (W) 1,935 5.7 -29.0°
Drops below altitude 10° 22:07:09 10° 307° (NW) 2,307 6.4 -29.4°
Sets 22:10:25 0° 330° (NNW) 3,239 7.1 -29.9°
